Churchill Falls Airport

Jump to: basic info | weather | frequencies | runways | comments

Related pages: nearby airports | nearby navaids | notams | map

Basic information (top)

Codes: ZUM CZUM
Location: lon 53.561901, lat -64.106400, elev 1,442 ft / 440 m msl
Status: small_airport
Scheduled airline service: yes
Links: Wikipedia Mobile

Weather (top)

Current conditions (rec'd 2015/02/01 12:58Z):

CZUM 011258Z AUTO 30009KT 3SM -SN SCT019 OVC085 M22/M24 A2950 RMK PRESFR SLP039

Airport forecast (rec'd 2015/02/01 08:39Z):

TAF CZUM 010738Z 0108/0120 35008KT 1SM -SN VV008 
      TEMPO 0108/0117 3SM -SN OVC015 
      BECMG 0113/0115 35015G25KT 
     FM011700 32020G30KT 1SM -SN BLSN VV008 
      TEMPO 0117/0120 3SM -SN BLSN OVC025 
      RMK FCST BASED ON AUTO OBS. NXT FCST BY 011400Z

Frequencies (top)

Verify before use: may be inaccurate or out of date.

ATF: 123.5 MHz (ATF)
AWOS: 122.55 MHz (AWOS)
CNTR: 126.025 MHz (GANDER CNTR)
RCO: 123.25 MHz (HALIFAX RDO)

Runways (top)

13/31: 5,500 x 150 ft (1,676 x 46 m) — paved — lighted

Latest comments (top)

churchill falls airport: no phone number [read]

More... (top)

See also NOTAMs and nearby airports and navaids, or visit the Churchill Falls Airport page at the main OurAirports website..